Location: Dvur Kralove nad Labem
(50.4330°N, 15.8170°E)
Time: 00:24:19
(UTC+02:00)

ISS - Pass Details

Date: 28 August 2022
Orbit: 414 x 417 km, 51.6° (Epoch: 24 September)

Event Time Altitude Azimuth Distance (km) Brightness Sun altitude
Exits shadow 03:53:58 18° 146° (SE) 1,104 -1.7 -18.7°
Maximum altitude 03:54:10 18° 141° (SE) 1,100 -1.7 -18.7°
Drops below altitude 10° 03:56:32 10° 96° (E) 1,500 -0.4 -18.4°
Sets 03:59:04 0° 77° (ENE) 2,366 1.1 -18.1°
